Showing default

ARSAT 1, 40272

Orbit data source: Space-Track

ARSAT 1, 40272 is a payload satellite owned by AR-SAT (AR) in GEO that was launched on Thu, 16 Oct 2014 UTC via an ARIANE 5ECA launch vehicle from the French Guiana (FRGUI). Payload-class satellites include a variety of spacecraft equipped with specific instruments for various scientific and technological missions. These include communications satellites like Starlink; space stations such as the ISS; scientific satellites like the Hubble; Earth observation satellites from companies like Planet Labs, Umbra, and HawkEye 360; GPS; miniature CubeSats for education and research; and military/defense satellites.

Loading next visibility...
Identifier
40272, 2014-062B
Orbit
GEO
Country
Flag of UnknownUnknown / ARGN
Related business
Manufacturer
INVAP
Mission
Operational Commercial Communications
Bus & Motor
ARSAT-BUS, S400
Mass
2,983 kg wet, ~2,000 kg dry
Launch date (UTC)
2014-10-16 (11 years ago)
Launch vehicle
ARIANE 5ECA
Launch site
French Guiana (FRGUI)
Object type
Payload
Rocket body
Debris
Shape & HBR
Box + 2 Pan, 8.2 m
Radar Cross Section
17.571 m², Large (>1 m²)

Expand to show TLE details & history
Last TLE update: 8 hours ago

TLE from 8 hours ago
0 ARSAT 1
1 40272U 14062B   25343.52454464 -.00000257  00000-0  00000-0 0  9994
2 40272   0.0283  42.7213 0001802 218.2894 294.5341  1.00270670 40717
Epoch: 2025-12-09T12:35Z
TLE epoch observation values (Epoch: 2025-12-09T12:35:20.656Z)
Latitude
0.00454°
Longitude
-71.82155°
Altitude
35,783.229 km
Speed
3.075 km/s
True Right ascension
13h 02m 05s
True Declination
0° 00' 16"
Sunlit
Object was in daylight at epoch
Visualization orbit readout
Latitude
Unknown
Longitude
Unknown
Altitude
Unknown
Speed
Unknown
Apparent Right ascension
Unknown
Apparent Declination
Unknown
Sunlit
N/A
Visualization observer readout
Local Sidereal Time
19:00:12
Azimuth
Unknown
Elevation
Unknown
Doppler factor
Unknown
Orbital elements
Apogee altitude
35,795.576 km
Perigee altitude
35,780.38 km
Semi-major axis
42,166.115 km
Eccentricity
0.00018
Inclination
0.0283°
RAAN
42.7213°
Arg. of periapsis
218.2894°
True anomaly
294.51531°
Mean anomaly
294.5341°
Eccentric anomaly
294.52471°
Mean motion
0.25067 °/min
Orbital period
1,436.17 mins
BSTAR
0
Loading maneuver chart data...
Computing Atmospheric mass density...
Loading historical data...
Loading historical data...
Loading historical data...
Loading historical data...
Loading historical data...
Loading historical data...
Loading historical data...
Other satellites on launch #62 in the year 2014 (2014-10-16 UTC)

Documentation

Showing up to 5 results
|